Weather History for Perth, WE

Change the Weather History Date:

Tuesday, June 11, 2013

  Actual Average Record
Temperature  
Mean Temperature 54 °F -  
Max Temperature 64 °F 65 °F 71 °F (2000)
Min Temperature 44 °F 48 °F 37 °F (2003)
Degree Days  
Heating Degree Days 11    
Growing Degree Days 4 (Base 50)    
Moisture  
Dew Point 41 °F    
Average Humidity 60    
Maximum Humidity 82    
Minimum Humidity 26    
Precipitation  
Precipitation 0.00 in 0.22 in - ()
Sea Level Pressure  
Sea Level Pressure 30.23 in    
Wind  
Wind Speed 10 mph ()    
Max Wind Speed 17 mph    
Max Gust Speed 31 mph    
Visibility 15.5 miles    
Events      
Averages and records for this station are not official NWS values.
T = Trace of Precipitation, MM = Missing Value Source: Averaged Metar Reports

Daily Weather History Graph

Daily Weather History Graph

Search for Another Location

Airport:

Trip Planner

Search our weather history database for the weather conditions in past years. The results will help you decide how hot, cold, wet, or windy it might be!

Date:

Astronomy

Jun. 11, 2013 Rise Set
Actual Time 7:12 AM AWST 5:18 PM AWST
Civil Twilight 6:45 AM AWST 5:45 PM AWST
Nautical Twilight 6:15 AM AWST 6:15 PM AWST
Astronomical Twilight 5:45 AM AWST 6:45 PM AWST
Moon 8:52 AM AWST (6/11) 7:41 PM AWST (6/11)
Length of Visible Light 10h 59m
Length of Day
10h 05m
Waxing Crescent, 6% of the Moon is Illuminated
Jun 11
Waxing Crescent
Jun 17
First Quarter
Jun 23
Full
Jun 30
Last Quarter
Jul 8
New

Hourly Weather History & Observations

Time (AWST) Temp. Windchill Dew Point Humidity Pressure Visibility Wind Dir Wind Speed Gust Speed Precip Events Conditions
12:00 AM 48 °F - 44 °F 79% 30.25 in 16 mi NNE 4.6 mph - -   Partly Cloudy
12:00 AM 48.2 °F - 42.8 °F 82% 30.24 in - NNE 4.6 mph - N/A   Clear
12:30 AM 50.0 °F - 42.8 °F 76% 30.24 in - ENE 4.6 mph - N/A   Clear
1:00 AM 50.0 °F - 42.8 °F 76% 30.24 in - ENE 5.8 mph - N/A   Clear
1:30 AM 50.0 °F - 42.8 °F 76% 30.24 in - ENE 8.1 mph - N/A   Clear
2:00 AM 50.0 °F - 42.8 °F 76% 30.24 in - NE 9.2 mph - N/A   Clear
2:30 AM 50.0 °F - 42.8 °F 76% 30.24 in - ENE 11.5 mph - N/A   Clear
3:00 AM 49 °F - 42 °F 71% 30.27 in 16 mi ENE 10.4 mph - -   Partly Cloudy
3:00 AM 50.0 °F - 42.8 °F 76% 30.24 in - ENE 10.4 mph - N/A   Clear
3:30 AM 50.0 °F - 42.8 °F 76% 30.24 in - ENE 10.4 mph - N/A   Clear
4:00 AM 48.2 °F - 41.0 °F 76% 30.24 in - ENE 10.4 mph - N/A   Clear
4:30 AM 48.2 °F - 41.0 °F 76% 30.24 in - ENE 16.1 mph - N/A   Clear
5:00 AM 49 °F - 41 °F 67% 30.27 in - ENE 17.3 mph - -  
5:00 AM 48.2 °F - 41.0 °F 76% 30.24 in - ENE 17.3 mph - N/A   Clear
5:30 AM 48.2 °F - 41.0 °F 76% 30.27 in - ENE 16.1 mph - N/A   Clear
6:00 AM 47 °F - 41 °F 73% 30.28 in 16 mi ENE 12.7 mph - -   Partly Cloudy
6:00 AM 48.2 °F - 41.0 °F 76% 30.27 in - ENE 12.7 mph - N/A   Clear
6:30 AM 46.4 °F 40.7 °F 41.0 °F 81% 30.27 in - ENE 12.7 mph - N/A   Clear
7:00 AM 46.4 °F 41.9 °F 41.0 °F 81% 30.27 in - ENE 9.2 mph - N/A   Clear
7:30 AM 46.4 °F 42.4 °F 41.0 °F 81% 30.30 in - ENE 8.1 mph - N/A   Clear
8:00 AM 48 °F - 41 °F 68% 30.32 in - ENE 9.2 mph - -  
8:00 AM 48.2 °F - 41.0 °F 76% 30.30 in - ENE 9.2 mph - N/A   Clear
8:30 AM 50.0 °F - 41.0 °F 71% 30.30 in - ENE 10.4 mph - N/A   Clear
9:00 AM 52 °F - 42 °F 58% 30.33 in 19 mi ENE 10.4 mph - -   Partly Cloudy
9:00 AM 51.8 °F - 41.0 °F 67% 30.30 in - ENE 10.4 mph - N/A   Clear
9:30 AM 53.6 °F - 42.8 °F 67% 30.30 in - ENE 10.4 mph - N/A   Clear
10:00 AM 57.2 °F - 42.8 °F 59% 30.30 in - ENE 10.4 mph - N/A   Clear
10:30 AM 59.0 °F - 41.0 °F 51% 30.30 in - NE 16.1 mph - N/A   Clear
11:00 AM 60 °F - 41 °F 37% 30.30 in - NE 17.3 mph - -  
11:00 AM 60.8 °F - 41.0 °F 48% 30.27 in 6.2 mi NE 17.3 mph - N/A   Partly Cloudy
11:30 AM 60.8 °F - 41.0 °F 48% 30.27 in 6.2 mi NE 16.1 mph - N/A   Partly Cloudy
12:00 PM 62 °F - 41 °F 34% 30.27 in 19 mi NE 15.0 mph - -   Partly Cloudy
12:00 PM 62.6 °F - 41.0 °F 45% 30.24 in - NE 15.0 mph - N/A   Clear
12:30 PM 60.8 °F - 39.2 °F 45% 30.24 in - ENE 13.8 mph - N/A   Clear
1:00 PM 62.6 °F - 39.2 °F 42% 30.21 in - ENE 15.0 mph - N/A   Clear
1:30 PM 64.4 °F - 39.2 °F 40% 30.21 in - ENE 10.4 mph - N/A   Clear
2:00 PM 64 °F - 38 °F 26% 30.21 in - ENE 15.0 mph - -  
2:00 PM 64.4 °F - 37.4 °F 37% 30.18 in - ENE 15.0 mph - N/A   Clear
2:30 PM 64.4 °F - 37.4 °F 37% 30.18 in - NE 15.0 mph - N/A   Clear
3:00 PM 64 °F - 39 °F 29% 30.19 in 19 mi ENE 12.7 mph - -   Scattered Clouds
3:00 PM 64.4 °F - 39.2 °F 40% 30.18 in - ENE 12.7 mph - N/A   Clear
3:30 PM 64.4 °F - 37.4 °F 37% 30.18 in - ENE 13.8 mph - N/A   Clear
4:00 PM 64.4 °F - 39.2 °F 40% 30.18 in - East 11.5 mph - N/A   Clear
4:30 PM 62.6 °F - 41.0 °F 45% 30.18 in - East 12.7 mph - N/A   Clear
5:00 PM 60 °F - 40 °F 36% 30.18 in - East 10.4 mph - -  
5:00 PM 60.8 °F - 41.0 °F 48% 30.18 in - East 10.4 mph - N/A   Clear
5:30 PM 57.2 °F - 42.8 °F 59% 30.18 in - ESE 8.1 mph 19.6 mph N/A   Clear
6:00 PM 56 °F - 42 °F 48% 30.19 in 19 mi ESE 8.1 mph - -   Partly Cloudy
6:00 PM 55.4 °F - 42.8 °F 63% 30.18 in - ESE 8.1 mph - N/A   Clear
6:30 PM 55.4 °F - 41.0 °F 58% 30.18 in - ESE 10.4 mph - N/A   Clear
7:00 PM 53.6 °F - 41.0 °F 62% 30.18 in - ESE 9.2 mph - N/A   Clear
7:30 PM 53.6 °F - 41.0 °F 62% 30.18 in - East 9.2 mph - N/A   Clear
8:00 PM 52 °F - 42 °F 58% 30.19 in - East 8.1 mph - -  
8:00 PM 51.8 °F - 41.0 °F 67% 30.18 in - East 8.1 mph - N/A   Clear
8:30 PM 51.8 °F - 41.0 °F 67% 30.18 in - East 8.1 mph - N/A   Clear
9:00 PM 54 °F - 40 °F 48% 30.20 in 19 mi East 11.5 mph - -   Partly Cloudy
9:00 PM 53.6 °F - 41.0 °F 62% 30.18 in - East 11.5 mph - N/A   Clear
9:30 PM 53.6 °F - 41.0 °F 62% 30.18 in - East 9.2 mph - N/A   Clear
10:00 PM 53.6 °F - 41.0 °F 62% 30.18 in - East 8.1 mph - N/A   Clear
10:30 PM 53.6 °F - 41.0 °F 62% 30.18 in - ENE 9.2 mph - N/A   Clear
11:00 PM 53 °F - 40 °F 51% 30.19 in - ENE 11.5 mph - -  
11:00 PM 53.6 °F - 41.0 °F 62% 30.18 in - ENE 11.5 mph - N/A   Clear
11:13 PM 53.6 °F - 41.0 °F 62% 30.18 in - ENE 17.3 mph 31.1 mph N/A   Clear
11:30 PM 53.6 °F - 39.2 °F 58% 30.18 in - ENE 17.3 mph - N/A   Clear